Location: Clanezzo
(45.7500°N, 9.6000°E)
Time: 07:12:33
(UTC+00:00)

CUTE-I - Visible Passes

Search period start: 03 December 2023 00:00
Search period end: 13 December 2023 00:00
Orbit: 808 x 822 km, 98.7° (Epoch: 02 December)

Date Brightness Start Highest point End Pass type
(mag) Time Alt. Az. Time Alt. Az. Time Alt. Az.
03 Dec ? 04:22:43 10° NE 04:25:47 15° E 04:28:50 10° SE visible
03 Dec ? 06:01:00 10° NNE 06:06:22 78° WNW 06:11:43 10° SSW visible
03 Dec ? 17:25:21 10° SSW 17:30:16 39° W 17:35:15 10° NNW visible
04 Dec ? 05:38:49 10° NNE 05:44:11 69° ESE 05:49:32 10° S visible
04 Dec ? 17:02:46 10° S 17:07:59 60° WSW 17:13:16 10° NNW visible
05 Dec ? 05:16:47 10° NNE 05:21:56 45° E 05:27:02 10° S visible
05 Dec ? 16:40:28 10° SSE 16:45:47 89° ENE 16:51:09 10° NNW visible
05 Dec ? 18:24:08 10° WSW 18:26:29 13° W 18:28:51 10° WNW visible
06 Dec ? 04:54:56 10° NE 04:59:36 29° E 05:04:14 10° SSE visible
06 Dec ? 16:18:27 10° SSE 16:23:38 59° ENE 16:28:52 10° N visible
06 Dec ? 18:00:08 10° SW 18:04:00 20° W 18:07:55 10° NW visible
07 Dec ? 04:33:25 10° NE 04:37:12 19° E 04:40:57 10° SE visible
07 Dec ? 06:12:18 10° N 06:17:37 63° WNW 06:22:54 10° SSW visible
07 Dec ? 17:36:56 10° SSW 17:41:37 31° W 17:46:19 10° NNW visible
08 Dec ? 04:12:40 10° ENE 04:14:42 12° E 04:16:42 10° ESE visible
08 Dec ? 05:50:04 10° NNE 05:55:28 86° ESE 06:00:50 10° SSW visible
08 Dec ? 17:14:11 10° S 17:19:17 48° W 17:24:27 10° NNW visible
09 Dec ? 05:27:56 10° NNE 05:33:14 56° E 05:38:30 10° S visible
09 Dec ? 16:51:44 10° S 16:57:01 75° WSW 17:02:23 10° NNW visible
10 Dec ? 05:05:59 10° NNE 05:10:56 36° E 05:15:51 10° SSE visible
10 Dec ? 16:29:34 10° SSE 16:34:50 73° ENE 16:40:10 10° N visible
10 Dec ? 18:12:08 10° SW 18:15:23 16° W 18:18:40 10° NW visible
11 Dec ? 04:44:16 10° NE 04:48:33 24° E 04:52:49 10° SE visible
11 Dec ? 16:07:40 10° SE 16:12:44 48° ENE 16:17:50 10° N visible
11 Dec ? 17:48:36 10° SSW 17:52:56 25° W 17:57:19 10° NW visible
12 Dec ? 04:23:00 10° NE 04:26:06 15° E 04:29:11 10° SE visible
12 Dec ? 06:01:18 10° NNE 06:06:41 78° WNW 06:12:02 10° SSW visible
12 Dec ? 17:25:38 10° SSW 17:30:34 39° W 17:35:33 10° NNW visible
